Theta_e
311 312 311 309 310 320 322 321 317 312 311 312 312 309 309 307 306 306 305 304 302 300 299 298 297 298 297 297 295 295 295 296 293 294 293 292 291 290 291 291 291 291 291
311 310 311 311 311 312 314 314 309 307 309 309 306 306 305 304 306 306 302 302 300 298 297 297 295 294 293 293 292 291 291 290 290 288 290 290 288 289 289 289 289 289 290
308 308 306 306 308 309 307 304 306 303 304 304 303 305 302 300 301 301 301 299 298 298 296 293 292 291 290 290 290 289 289 288 289 287 287 289 288 289 288 289 288 289 289
304 306 304 304 304 302 300 300 300 302 300 300 302 302 297 296 297 295 296 295 293 292 291 291 290 290 288 288 288 288 287 287 287 287 286 286 287 288 288 286 286 289 287
302 301 303 304 302 300 298 298 297 296 296 298 297 296 295 295 293 293 292 291 290 289 288 288 288 287 287 288 288 287 287 287 286 286 285 285 285 284 283 285 284 286 287
299 300 299 296 293 293 294 292 292 293 294 293 293 293 292 289 291 291 290 289 288 287 286 286 287 286 287 287 287 287 288 286 284 284 284 282 282 283 284 284 283 281 280
298 297 294 292 291 291 290 290 290 292 291 291 291 291 290 291 290 289 288 288 287 287 286 286 285 285 286 287 286 286 285 286 286 285 282 283 282 284 283 281 281 280 280
295 294 292 290 289 287 287 288 289 290 290 290 289 290 290 290 290 289 287 288 287 287 286 286 285 286 286 285 285 284 284 284 283 283 284 284 285 284 283 282 281 280 281
293 292 290 289 288 286 286 287 289 289 288 289 288 289 289 289 290 288 287 286 285 285 286 286 285 285 286 286 283 281 281 281 281 281 282 283 283 281 281 281 278 278 277
293 292 291 290 288 287 288 287 287 288 287 287 287 288 287 287 289 288 287 286 285 284 284 284 283 285 285 284 282 280 279 278 279 279 279 279 279 279 278 278 278 275 275
290 289 288 288 288 289 288 287 285 286 285 286 286 286 286 287 288 288 287 286 285 284 283 283 284 286 284 282 281 280 279 277 276 276 277 278 277 277 277 277 277 275 274
287 287 287 286 287 286 285 285 285 285 284 284 284 284 285 286 286 288 287 286 286 284 283 282 284 284 283 282 279 279 277 275 276 276 276 275 274 274 274 274 275 275 275
285 285 285 285 285 285 285 284 284 284 284 283 283 283 283 284 286 287 287 286 285 284 283 283 283 282 282 279 278 276 272 274 274 273 273 272 272 272 272 273 273 274 274
284 283 282 283 283 284 285 285 285 284 284 283 283 283 283 283 285 286 285 285 283 282 282 282 281 278 276 276 274 272 273 273 273 272 271 271 271 272 271 271 270 271 271
282 281 282 283 282 282 284 284 284 285 285 284 284 284 282 282 284 285 285 283 281 281 278 277 274 273 271 271 271 270 270 270 270 270 270 270 270 270 270 270 269 269 268
281 280 281 281 281 281 282 281 284 285 284 286 286 285 285 286 285 285 285 283 281 280 274 273 272 272 272 272 271 270 269 268 269 269 268 268 268 268 268 268 268 267 266
281 280 280 279 280 280 280 281 280 282 283 285 285 285 285 284 285 285 284 283 282 279 274 274 273 273 273 272 271 270 269 269 267 268 268 267 267 267 265 266 266 266 265
278 278 280 280 280 280 280 281 282 281 280 281 284 284 284 284 284 285 285 283 279 279 273 273 273 273 272 271 270 269 269 266 266 267 266 265 265 265 265 265 265 263 264
278 279 279 280 280 280 281 281 282 282 281 282 282 283 283 284 284 285 285 281 278 278 274 272 273 272 272 271 269 268 268 266 266 265 265 263 263 263 263 263 263 260 260
276 275 277 279 279 279 280 280 281 281 281 281 281 281 282 282 281 282 283 281 278 277 275 272 271 271 270 268 267 266 264 263 263 263 264 264 263 262 262 261 262 262 262
275 276 276 277 278 279 280 280 280 280 280 281 281 282 283 281 281 281 281 281 276 275 273 271 270 268 267 266 266 264 264 264 264 264 263 263 262 260 261 262 261 260 260
273 274 275 276 277 278 278 279 279 280 280 280 281 281 283 281 281 281 281 280 277 276 274 270 269 267 266 265 264 264 263 263 263 262 262 260 260 260 260 260 259 260 260
271 272 273 275 276 276 277 278 278 278 279 279 279 279 278 280 279 280 279 278 275 272 270 269 268 266 265 264 264 264 263 263 263 263 261 260 258 259 259 259 259 258 259
269 270 271 272 273 274 274 275 276 275 276 277 278 278 276 278 279 277 276 274 270 269 267 266 266 265 263 263 262 263 263 264 263 261 260 260 259 258 259 258 258 257 258
268 269 270 270 271 271 272 273 273 274 274 274 275 275 275 275 275 277 275 273 270 268 266 264 264 264 264 262 261 261 261 261 259 258 258 258 258 257 257 257 257 257 257
267 267 268 269 269 270 270 271 272 272 273 273 274 274 274 273 273 274 273 270 268 267 266 263 263 262 262 262 261 261 260 260 258 257 256 256 256 256 256 255 255 255 255
Wind_Speed
6 6 8 9 11 11 9 8 7 6 8 9 9 8 10 8 7 8 8 8 9 8 7 8 8 7 5 5 4 4 3 2 3 2 2 5 8 9 9 9 9 9 9
6 6 7 6 7 8 7 8 7 8 7 9 8 7 9 8 9 10 10 9 10 9 9 9 8 6 7 7 5 5 4 3 2 2 1 2 4 7 8 9 8 8 9
4 5 3 4 6 8 7 6 7 7 7 8 7 10 9 7 8 7 8 8 8 8 8 9 9 8 7 6 5 5 4 3 3 1 2 2 4 4 7 7 7 7 7
5 5 5 6 5 5 6 6 6 8 8 7 7 8 9 8 7 8 9 10 10 9 8 8 9 9 9 8 6 6 5 4 3 1 2 3 4 6 5 7 8 7 8
7 7 8 7 4 5 5 6 7 6 6 7 9 8 9 9 7 11 10 11 11 11 9 8 8 8 9 8 6 6 5 3 2 1 2 3 4 7 8 9 9 9 9
9 8 6 5 5 4 4 5 5 5 7 7 7 8 9 5 13 12 11 9 9 10 10 9 10 9 10 11 9 7 4 3 3 1 0 2 4 6 6 7 8 9 8
9 7 7 7 7 7 7 6 6 8 8 8 8 9 9 9 15 15 11 8 9 9 9 10 8 5 7 8 8 8 6 5 5 2 1 3 5 8 8 9 9 9 9
10 9 8 9 8 6 6 6 6 7 9 9 9 10 10 8 18 18 14 11 10 11 10 10 9 9 8 7 6 5 4 4 4 2 1 3 4 6 6 7 9 10 9
11 11 10 10 9 8 8 8 8 8 8 8 8 9 10 10 18 19 14 10 10 11 9 9 9 9 11 11 6 6 4 3 3 3 3 5 7 9 9 5 6 8 8
12 10 10 11 11 11 11 10 7 7 7 7 7 7 7 9 18 20 14 7 9 8 8 7 7 7 12 11 6 5 5 3 1 2 3 4 5 6 8 6 5 6 7
4 6 9 10 10 10 10 7 9 8 8 8 8 7 8 9 13 19 17 8 8 8 7 7 6 13 11 10 8 4 4 5 4 3 2 2 3 4 4 6 5 4 5
5 7 7 7 7 7 10 8 9 9 10 10 9 8 7 7 10 17 18 11 13 8 8 6 7 14 13 11 7 8 8 6 3 3 3 2 2 3 4 6 7 7 6
4 5 6 6 6 8 10 10 9 9 9 9 9 9 8 7 7 17 18 15 15 7 6 9 15 15 14 9 10 8 6 3 3 3 3 3 2 2 4 4 6 7 8
4 5 5 7 8 8 6 7 8 9 9 9 9 9 8 8 8 8 8 9 12 8 12 9 11 9 8 8 7 5 3 3 3 4 3 2 0 1 1 3 4 6 6
3 3 6 6 8 8 7 8 9 9 11 11 10 10 11 11 12 14 13 9 8 9 9 7 7 6 7 6 5 5 4 4 4 3 3 3 1 1 2 3 3 5 5
3 3 4 5 6 6 7 7 11 10 15 14 13 11 6 9 17 20 19 18 19 20 5 7 8 8 8 8 7 7 5 5 4 3 3 3 2 0 2 2 3 4 5
4 3 3 5 6 7 7 7 7 8 13 16 16 17 16 14 21 24 24 21 21 20 7 8 8 8 8 8 8 7 7 6 5 4 4 4 3 2 3 1 3 3 5
5 4 4 5 5 6 7 7 6 8 9 9 16 15 20 20 23 25 25 21 12 16 8 8 8 8 7 8 8 7 6 6 5 5 4 3 3 3 2 2 2 2 4
5 4 4 4 5 6 7 7 7 7 8 7 7 13 14 20 21 25 28 11 11 12 10 9 7 8 8 8 7 7 7 7 6 6 5 4 4 4 3 4 3 2 2
5 6 5 5 5 6 7 7 8 8 8 8 8 10 9 12 12 14 14 12 9 10 8 9 8 7 8 8 8 7 6 6 6 5 5 5 5 4 4 5 4 3 3
5 5 6 6 6 6 6 7 8 8 8 9 9 10 18 13 13 14 14 14 12 11 9 8 8 8 7 8 8 8 7 7 7 7 6 6 6 5 5 5 4 3 4
6 6 5 6 6 7 7 7 7 8 8 9 7 8 22 12 11 11 12 11 9 9 8 8 8 8 8 9 9 9 9 9 8 7 6 6 6 6 5 6 5 5 5
6 7 7 7 7 7 7 7 7 8 9 9 9 8 8 11 12 11 10 8 7 7 7 8 8 8 8 8 8 9 10 10 9 8 8 7 7 7 6 6 6 5 6
6 6 6 7 7 7 8 8 8 10 10 9 9 9 10 11 12 13 10 9 8 9 9 9 9 12 11 9 8 8 7 7 7 8 9 7 7 7 6 6 6 7 6
7 7 7 7 7 8 8 8 9 9 9 10 10 10 10 10 11 11 11 9 9 9 11 10 9 12 14 15 13 13 12 14 10 9 7 8 9 9 7 6 7 6 7
8 8 8 7 8 8 8 9 9 9 9 9 9 10 10 11 11 12 9 10 9 9 10 9 12 15 16 13 15 15 15 14 12 13 9 8 8 8 8 8 10 7 8
Wind_Direction
194 194 207 214 217 220 215 189 164 140 144 161 163 163 144 140 136 134 140 140 133 130 123 128 124 130 125 111 109 122 126 176 216 121 3 349 342 348 341 347 344 338 335
195 202 209 211 202 197 177 172 144 150 162 167 157 148 143 147 153 153 146 152 148 144 148 142 132 124 115 113 116 116 113 81 136 194 325 325 327 333 331 324 334 329 328
203 187 171 178 183 184 165 143 154 150 152 155 160 156 145 148 148 148 151 146 143 147 147 143 134 130 122 120 114 116 120 123 87 47 350 321 319 323 320 322 319 317 325
185 188 184 195 183 157 144 149 144 155 154 155 164 158 148 144 142 140 146 145 140 136 137 133 136 137 134 132 129 126 125 135 127 84 324 317 323 339 319 326 329 335 329
183 187 196 191 169 163 146 154 144 149 149 158 152 155 150 157 155 154 148 144 143 137 134 130 129 125 124 131 138 142 137 128 109 65 334 328 339 342 346 337 325 326 323
187 197 167 150 145 159 141 139 141 140 150 152 156 159 154 130 143 141 143 143 140 142 141 129 126 133 136 136 126 110 107 139 140 166 246 337 337 334 332 327 324 333 342
191 189 170 164 176 170 155 157 161 166 154 161 158 153 149 144 147 145 144 144 145 149 144 141 144 151 146 138 123 118 105 108 82 97 344 336 329 345 341 326 331 323 313
195 190 177 172 167 156 153 158 152 165 170 164 160 161 155 156 158 154 152 149 149 156 157 158 156 163 159 151 144 133 129 110 52 48 19 334 342 342 338 325 320 314 297
203 193 180 174 163 160 168 168 171 170 168 168 162 160 160 160 164 162 156 152 154 156 157 161 164 165 162 162 147 148 145 107 67 34 45 40 29 21 9 338 346 333 331
201 191 175 176 175 177 176 173 167 169 157 152 159 162 159 154 168 170 164 153 151 154 157 154 171 161 142 152 154 159 152 147 124 58 67 59 33 20 18 21 355 343 341
159 162 177 182 180 175 166 166 158 158 151 161 159 163 159 162 176 180 176 168 161 158 161 166 174 165 152 153 146 162 170 150 148 153 121 75 44 26 16 5 350 330 314
158 173 181 175 170 164 163 156 160 159 160 169 172 172 175 170 183 190 189 183 171 166 168 167 166 161 160 153 149 148 147 149 168 146 128 96 48 22 1 345 327 319 300
162 175 170 159 168 170 167 165 165 171 175 175 182 180 181 176 182 189 190 186 176 165 155 167 158 161 156 154 149 153 156 176 167 160 158 122 58 9 319 329 314 312 301
187 173 161 175 173 172 175 175 177 181 184 179 183 186 181 178 185 183 181 178 174 157 152 159 153 152 158 146 142 162 182 190 180 167 144 108 112 288 347 352 321 323 305
205 177 189 192 188 186 193 187 193 199 196 187 193 185 176 189 197 185 176 167 163 162 132 145 154 164 176 178 181 179 177 178 179 165 150 154 140 10 344 343 343 323 325
216 211 213 201 198 194 190 194 218 213 206 210 200 192 194 194 182 187 185 175 166 163 156 189 189 190 192 187 185 183 186 191 185 172 174 154 149 35 302 338 332 322 323
269 246 217 213 205 201 202 199 194 206 215 210 206 199 194 187 186 188 185 183 178 174 206 200 199 195 193 189 185 186 185 190 170 189 185 170 164 206 240 337 316 329 330
263 250 231 228 220 219 214 209 203 197 197 201 213 203 201 198 193 191 188 181 183 198 206 206 210 189 188 189 189 188 177 170 191 187 195 181 181 220 241 246 260 304 318
284 266 243 241 226 220 215 213 216 213 213 206 188 205 205 206 204 199 194 198 196 205 197 204 203 192 189 188 186 185 183 187 187 179 193 199 196 213 220 247 240 199 282
281 268 254 250 237 226 221 218 215 214 214 209 203 204 182 187 199 200 202 201 200 214 200 199 191 194 186 183 180 183 180 185 185 198 203 202 208 216 224 239 231 237 241
308 294 261 257 250 239 233 229 229 224 223 221 218 209 197 197 201 204 204 204 199 198 205 199 188 185 181 178 176 179 189 198 205 202 199 198 201 210 214 234 236 226 246
313 304 293 271 264 256 251 247 242 241 240 238 230 218 213 213 215 217 216 215 202 201 192 188 189 187 184 182 178 181 185 193 193 207 203 204 208 213 212 219 222 221 232
321 311 299 285 274 269 260 253 250 246 243 239 234 219 208 216 220 222 219 208 194 193 182 185 188 184 185 188 184 188 190 191 186 184 191 199 203 213 211 216 218 218 231
314 300 290 284 280 276 272 269 262 254 253 248 239 229 219 224 227 220 214 201 189 190 184 188 193 189 184 184 188 197 201 187 181 183 184 197 204 201 210 211 215 223 236
320 307 297 288 283 281 277 267 261 258 251 247 243 236 233 231 235 233 220 211 202 198 192 187 182 194 193 187 188 198 199 198 190 184 183 201 208 205 204 209 217 221 226
319 313 307 302 295 288 278 275 272 271 267 261 255 250 241 236 233 236 224 208 204 202 195 188 187 189 193 200 201 200 202 201 197 191 188 197 204 208 206 210 214 219 226